When you browse on this site, cookies collect data to enhance your experience and personalize the content and advertising you see.
Visit our Privacy Policy to learn more. By continuing to use the site, you agree to this use of cookies and data.
  • In Hungary
  • List of Countries
  • For 7 days
  • Water Temperature
  • Weather Map
  • News
  • Weather Widgets
  • user-avatar
    Login

    Hourly Weather Bolshedorozhnoe

    Today, 14 October, Monday

    Time Temperature Precipitation Wind Pressure Humidity
    00:00 +6°C° 0 mm 4 mps 738 mmHg 89%
    01:00 +6°C° 0 mm 4 mps 738 mmHg 89%
    02:00 +5°C° 0 mm 4 mps 739 mmHg 90%
    03:00 +5°C° 0 mm 5 mps 739 mmHg 91%
    04:00 +5°C° 0 mm 5 mps 739 mmHg 94%
    05:00 +5°C° 0 mm 5 mps 739 mmHg 93%
    06:00 +5°C° 0 mm 5 mps 739 mmHg 93%
    07:00 +4°C° 0 mm 6 mps 739 mmHg 93%
    08:00 +5°C° 0 mm 6 mps 740 mmHg 89%
    09:00 +7°C° 0 mm 6 mps 740 mmHg 85%
    10:00 +6°C° 0 mm 7 mps 741 mmHg 81%
    11:00 +8°C° 0.1 mm 7 mps 741 mmHg 79%
    12:00 +8°C° 0.1 mm 7 mps 742 mmHg 76%
    13:00 +8°C° 0.1 mm 7 mps 742 mmHg 73%
    14:00 +8°C° 0 mm 7 mps 742 mmHg 76%
    15:00 +8°C° 0 mm 7 mps 743 mmHg 78%
    16:00 +8°C° 0 mm 7 mps 743 mmHg 80%
    17:00 +7°C° 0 mm 6 mps 743 mmHg 82%
    18:00 +7°C° 0 mm 6 mps 743 mmHg 83%
    19:00 +7°C° 0 mm 6 mps 744 mmHg 84%
    20:00 +5°C° 0 mm 6 mps 744 mmHg 86%
    21:00 +6°C° 0 mm 5 mps 744 mmHg 87%
    22:00 +5°C° 0 mm 4 mps 744 mmHg 88%
    23:00 +5°C° 0 mm 4 mps 744 mmHg 89%

    Tomorrow, 15 October, Tuesday

    Time Temperature Precipitation Wind Pressure Humidity
    00:00 +5°C° 0 mm 4 mps 744 mmHg 91%
    01:00 +4°C° 0 mm 3 mps 744 mmHg 92%
    02:00 +4°C° 0 mm 3 mps 744 mmHg 92%
    03:00 +4°C° 0 mm 3 mps 743 mmHg 93%
    04:00 +4°C° 0 mm 3 mps 743 mmHg 93%
    05:00 +5°C° 1.1 mm 4 mps 742 mmHg 94%
    06:00 +5°C° 1.1 mm 5 mps 741 mmHg 96%
    07:00 +5°C° 1.1 mm 5 mps 740 mmHg 97%
    08:00 +5°C° 1.7 mm 6 mps 739 mmHg 97%
    09:00 +7°C° 1.7 mm 6 mps 738 mmHg 97%
    10:00 +8°C° 1.7 mm 6 mps 738 mmHg 97%
    11:00 +9°C° 0.5 mm 6 mps 737 mmHg 95%
    12:00 +10°C° 0.5 mm 7 mps 737 mmHg 92%
    13:00 +12°C° 0.5 mm 7 mps 737 mmHg 90%
    14:00 +11°C° 0.9 mm 6 mps 737 mmHg 91%
    15:00 +10°C° 0.9 mm 5 mps 737 mmHg 92%
    16:00 +10°C° 0.9 mm 5 mps 738 mmHg 93%
    17:00 +9°C° 0.2 mm 5 mps 738 mmHg 93%
    18:00 +9°C° 0.2 mm 5 mps 739 mmHg 93%
    19:00 +8°C° 0.2 mm 6 mps 739 mmHg 93%
    20:00 +8°C° 0.1 mm 6 mps 740 mmHg 90%
    21:00 +7°C° 0.1 mm 6 mps 741 mmHg 88%
    22:00 +5°C° 0.1 mm 6 mps 742 mmHg 85%
    23:00 +6°C° 0 mm 5 mps 742 mmHg 85%

    Day after tomorrow, 16 October, Wednesday

    Time Temperature Precipitation Wind Pressure Humidity
    00:00 +5°C° 0 mm 5 mps 743 mmHg 85%
    01:00 +5°C° 0 mm 5 mps 744 mmHg 85%
    02:00 +3°C° 0 mm 5 mps 744 mmHg 83%
    03:00 +3°C° 0 mm 5 mps 745 mmHg 82%
    04:00 +2°C° 0 mm 5 mps 746 mmHg 80%
    05:00 +1°C° 0 mm 5 mps 746 mmHg 83%
    06:00 +1°C° 0 mm 5 mps 747 mmHg 85%
    07:00 0°C° 0 mm 5 mps 747 mmHg 88%
    08:00 +1°C° 0 mm 5 mps 748 mmHg 84%
    09:00 +2°C° 0 mm 6 mps 748 mmHg 80%
    10:00 +2°C° 0 mm 6 mps 749 mmHg 76%
    11:00 +3°C° 0 mm 6 mps 749 mmHg 75%
    12:00 +3°C° 0 mm 5 mps 750 mmHg 73%
    13:00 +3°C° 0 mm 5 mps 750 mmHg 72%
    14:00 +3°C° 0 mm 5 mps 751 mmHg 72%
    15:00 +3°C° 0 mm 5 mps 751 mmHg 72%
    16:00 +2°C° 0 mm 5 mps 751 mmHg 72%
    17:00 +3°C° 0 mm 4 mps 752 mmHg 76%
    18:00 +1°C° 0 mm 4 mps 752 mmHg 80%
    19:00 +1°C° 0 mm 3 mps 752 mmHg 84%
    20:00 +2°C° 0 mm 2 mps 753 mmHg 84%
    21:00 +2°C° 0 mm 2 mps 753 mmHg 83%
    22:00 +2°C° 0 mm 2 mps 753 mmHg 83%
    23:00 +1°C° 0 mm 2 mps 753 mmHg 84%

    17 October, Thursday

    Time Temperature Precipitation Wind Pressure Humidity
    00:00 +2°C° 0 mm 1 mps 753 mmHg 85%
    01:00 +2°C° 0 mm 1 mps 753 mmHg 86%
    02:00 +1°C° 0 mm 1 mps 754 mmHg 86%
    03:00 +1°C° 0 mm 1 mps 754 mmHg 86%
    04:00 0°C° 0 mm 0 mps 754 mmHg 86%
    05:00 +1°C° 0 mm 1 mps 754 mmHg 86%
    06:00 +1°C° 0 mm 1 mps 754 mmHg 86%
    07:00 +2°C° 0 mm 1 mps 754 mmHg 86%
    08:00 +1°C° 0 mm 2 mps 754 mmHg 84%
    09:00 +1°C° 0 mm 3 mps 754 mmHg 82%
    10:00 +2°C° 0 mm 3 mps 754 mmHg 80%
    11:00 +1°C° 0.3 mm 4 mps 753 mmHg 82%
    12:00 +1°C° 0.3 mm 5 mps 753 mmHg 83%
    13:00 +1°C° 0.3 mm 5 mps 752 mmHg 85%
    14:00 +2°C° 0.1 mm 6 mps 752 mmHg 82%
    15:00 +2°C° 0.1 mm 6 mps 751 mmHg 79%
    16:00 +3°C° 0.1 mm 6 mps 750 mmHg 76%
    17:00 +3°C° 0 mm 6 mps 750 mmHg 75%
    18:00 +3°C° 0 mm 7 mps 749 mmHg 75%
    19:00 +3°C° 0 mm 7 mps 748 mmHg 74%
    20:00 +3°C° 0 mm 7 mps 747 mmHg 73%
    21:00 +2°C° 0 mm 8 mps 747 mmHg 72%
    22:00 +2°C° 0 mm 8 mps 746 mmHg 72%
    23:00 +2°C° 0 mm 8 mps 746 mmHg 71%

    18 October, Friday

    Time Temperature Precipitation Wind Pressure Humidity
    00:00 +2°C° 0 mm 8 mps 745 mmHg 70%
    01:00 +3°C° 0 mm 7 mps 744 mmHg 69%
    02:00 +3°C° 0 mm 7 mps 744 mmHg 69%
    03:00 +3°C° 0 mm 7 mps 743 mmHg 70%
    04:00 +2°C° 0 mm 8 mps 742 mmHg 70%
    05:00 +3°C° 0.3 mm 7 mps 742 mmHg 75%
    06:00 +3°C° 0.3 mm 7 mps 741 mmHg 80%
    07:00 +3°C° 0.3 mm 7 mps 741 mmHg 85%
    08:00 +4°C° 0 mm 7 mps 741 mmHg 86%
    09:00 +4°C° 0 mm 7 mps 741 mmHg 87%
    10:00 +5°C° 0 mm 7 mps 741 mmHg 88%
    11:00 +4°C° 0.1 mm 7 mps 742 mmHg 83%
    12:00 +3°C° 0.1 mm 7 mps 742 mmHg 79%
    13:00 0°C° 0.1 mm 7 mps 742 mmHg 74%
    14:00 0°C° 0 mm 7 mps 743 mmHg 72%
    15:00 0°C° 0 mm 7 mps 743 mmHg 70%
    16:00 0°C° 0 mm 8 mps 744 mmHg 68%
    17:00 -1°C° 0 mm 8 mps 744 mmHg 70%
    18:00 -1°C° 0 mm 7 mps 745 mmHg 72%
    19:00 -2°C° 0 mm 7 mps 745 mmHg 75%
    20:00 -2°C° 0 mm 7 mps 745 mmHg 76%
    21:00 -2°C° 0 mm 7 mps 746 mmHg 77%
    22:00 -3°C° 0 mm 7 mps 746 mmHg 78%
    23:00 -3°C° 0 mm 7 mps 747 mmHg 78%

    19 October, Saturday

    Time Temperature Precipitation Wind Pressure Humidity
    00:00 -3°C° 0 mm 7 mps 747 mmHg 78%
    01:00 -3°C° 0 mm 7 mps 747 mmHg 78%
    02:00 -3°C° 0 mm 7 mps 748 mmHg 77%
    03:00 -3°C° 0 mm 7 mps 748 mmHg 76%
    04:00 -4°C° 0 mm 7 mps 749 mmHg 75%
    05:00 -4°C° 0 mm 7 mps 749 mmHg 77%
    06:00 -5°C° 0 mm 6 mps 750 mmHg 79%
    07:00 -5°C° 0 mm 6 mps 750 mmHg 81%
    08:00 -5°C° 0 mm 6 mps 751 mmHg 78%
    09:00 -4°C° 0 mm 6 mps 751 mmHg 74%
    10:00 -4°C° 0 mm 6 mps 752 mmHg 71%
    11:00 -3°C° 0 mm 6 mps 752 mmHg 65%
    12:00 -2°C° 0 mm 6 mps 752 mmHg 60%
    13:00 0°C° 0 mm 5 mps 753 mmHg 54%
    14:00 0°C° 0 mm 5 mps 753 mmHg 54%
    15:00 0°C° 0 mm 5 mps 753 mmHg 54%
    16:00 0°C° 0 mm 4 mps 753 mmHg 54%
    17:00 -1°C° 0 mm 4 mps 753 mmHg 59%
    18:00 -1°C° 0 mm 3 mps 754 mmHg 64%
    19:00 -2°C° 0 mm 2 mps 754 mmHg 69%
    20:00 -2°C° 0 mm 2 mps 754 mmHg 69%
    21:00 -3°C° 0 mm 2 mps 755 mmHg 69%
    22:00 -3°C° 0 mm 2 mps 755 mmHg 69%
    23:00 -1°C° 0 mm 1 mps 755 mmHg 68%
    Show more